EW3205 Weather Reports


time (UTC)temp
F
wind
direction
speed
knots
gust
knots
rain 1hr
in
rain 24hr
in
rain mn
in
humidity
%
barometer
mb
20260506173035 51 286 1.7 10.4 0.00 0.00 0.00 58 1011.6
20260506171530 52 4 0.9 7.8 0.00 0.00 0.00 55 1011.5
20260506170030 52 275 1.7 5.2 0.00 0.00 0.00 53 1011.5
20260506164536 53 283 1.7 7.0 0.00 0.00 0.00 54 1011.5
20260506163029 53 9 1.7 6.1 0.00 0.00 0.00 53 1011.5
20260506161529 54 285 2.6 6.1 0.00 0.00 0.00 51 1011.5
20260506160030 54 325 2.6 7.0 0.00 0.00 0.00 50 1011.5
20260506154528 54 292 0.9 7.0 0.00 0.00 0.00 50 1011.5
20260506153026 54 286 2.6 7.8 0.00 0.00 0.00 46 1011.5
20260506151527 55 44 0.9 7.8 0.00 0.00 0.00 45 1011.5
20260506150031 55 254 0.9 5.2 0.00 0.00 0.00 47 1011.5
20260506144526 55 348 1.7 7.0 0.00 0.00 0.00 45 1011.4
20260506143026 56 249 1.7 8.7 0.00 0.00 0.00 42 1011.5
20260506141523 56 244 1.7 9.6 0.00 0.00 0.00 39 1011.6
20260506140025 56 4 2.6 10.4 0.00 0.00 0.00 38 1011.7
20260506134522 56 346 1.7 9.6 0.00 0.00 0.00 38 1011.5
20260506133021 56 200 3.5 9.6 0.00 0.00 0.00 39 1011.7
20260506131532 57 279 3.5 7.0 0.00 0.00 0.00 35 1011.5
20260506130023 56 244 2.6 8.7 0.00 0.00 0.00 36 1011.6
20260506124519 56 248 2.6 8.7 0.00 0.00 0.00 32 1011.7
20260506123017 57 298 1.7 11.3 0.00 0.00 0.00 33 1011.7
20260506121516 56 236 5.2 9.6 0.00 0.00 0.00 30 1011.8
20260506120019 56 240 5.2 11.3 0.00 0.00 0.00 31 1012.0
20260506114521 58 237 2.6 10.4 0.00 0.00 0.00 32 1011.9
20260506113025 56 288 4.3 12.2 0.00 0.00 0.00 35 1012.0
20260506111513 56 202 7.0 10.4 0.00 0.00 0.00 31 1011.9
20260506110012 56 223 4.3 14.8 0.00 0.00 0.00 31 1012.0
20260506104510 56 240 5.2 10.4 0.00 0.00 0.00 30 1012.0
20260506103012 56 238 6.1 13.0 0.00 0.00 0.00 30 1012.0
20260506101509 56 234 6.1 13.0 0.00 0.00 0.00 30 1012.0
20260506100008 55 236 7.8 11.3 0.00 0.00 0.00 28 1011.9
20260506094504 56 193 5.2 14.8 0.00 0.00 0.00 29 1012.1
20260506093058 55 247 6.1 9.6 0.00 0.00 0.00 32 1012.1
20260506091601 55 196 5.2 9.6 0.00 0.00 0.00 33 1012.0
20260506090100 55 179 4.3 8.7 0.00 0.00 0.00 32 1012.1
20260506084552 54 219 5.2 8.7 0.00 0.00 0.00 30 1012.0
20260506083048 53 182 6.1 10.4 0.00 0.00 0.00 31 1012.2
20260506081543 54 157 3.5 8.7 0.00 0.00 0.00 35 1012.2
20260506073033 51 127 2.6 8.7 0.00 0.00 0.00 35 1012.2
20260506071529 50 72 2.6 7.8 0.00 0.00 0.00 39 1012.3
20260506061515 44 80 0.0 5.2 0.00 0.00 0.00 59 1012.2
20260506050130 37 54 0.0 1.7 0.00 0.00 0.00 77 1012.6
20260506044553 34 54 0.0 0.9 0.00 0.00 0.00 81 1012.7
20260506043051 32 54 0.0 0.9 0.00 0.00 0.00 84 1012.7
20260506041550 31 54 0.0 0.0 0.00 0.00 0.00 87 1012.6
20260506040049 31 54 0.0 0.9 0.00 0.00 0.00 85 1012.6
20260506034559 30 54 0.0 1.7 0.00 0.00 0.00 86 1012.4
20260506033045 30 38 0.0 2.6 0.00 0.00 0.00 85 1012.4
20260506031544 30 31 0.0 0.9 0.00 0.00 0.00 85 1012.2
20260506030043 30 35 0.0 1.7 0.00 0.00 0.00 85 1012.2
20260506024557 31 35 0.0 1.7 0.00 0.00 0.00 84 1012.2
20260506023040 30 35 0.0 0.0 0.00 0.00 0.00 86 1012.2
20260506021539 30 35 0.0 0.0 0.00 0.00 0.00 86 1012.1
20260506020038 30 35 0.0 0.0 0.00 0.00 0.00 84 1012.2
20260506014537 30 35 0.0 0.9 0.00 0.00 0.00 84 1012.1
20260506013051 31 35 0.0 0.0 0.00 0.00 0.00 84 1012.1
20260506011536 31 35 0.0 1.7 0.00 0.00 0.00 83 1011.9
20260506010034 31 35 0.0 0.0 0.00 0.00 0.00 82 1011.9
20260506004533 31 35 0.0 0.0 0.00 0.00 0.00 83 1011.8
20260506003034 32 35 0.0 0.0 0.00 0.00 0.00 81 1011.9
20260506001532 32 35 0.0 0.0 0.00 0.00 0.00 82 1011.9
20260506000028 33 35 0.0 0.0 0.00 0.00 0.00 81 1011.9
20260505234534 32 35 0.0 0.0 0.00 0.00 0.00 81 1011.9
20260505233026 32 35 0.0 0.0 0.00 0.00 0.00 82 1012.0
20260505231525 33 35 0.0 0.0 0.00 0.00 0.00 80 1012.1
20260505230038 33 35 0.0 0.0 0.00 0.00 0.00 82 1011.9
20260505224522 34 35 0.0 0.0 0.00 0.00 0.00 79 1012.1
20260505223020 34 35 0.0 0.0 0.00 0.00 0.00 79 1012.0
20260505221519 34 35 0.0 0.0 0.00 0.00 0.00 79 1012.1
20260505220014 36 35 0.0 0.0 0.00 0.00 0.00 77 1012.1
20260505214514 36 35 0.0 0.0 0.00 0.00 0.00 76 1012.2
20260505213012 35 35 0.0 0.0 0.00 0.00 0.00 77 1012.1
20260505211512 36 35 0.0 0.0 0.00 0.00 0.00 75 1012.1
20260505210009 37 35 0.0 0.0 0.00 0.00 0.00 73 1012.1
20260505204507 38 35 0.0 2.6 0.00 0.00 0.00 72 1012.1
20260505203006 38 265 0.0 0.9 0.00 0.00 0.00 72 1012.1
20260505201506 38 265 0.0 0.9 0.00 0.00 0.00 71 1012.1
20260505200005 39 265 0.0 0.9 0.00 0.00 0.00 70 1012.1
20260505194612 40 265 0.0 0.0 0.00 0.00 0.00 68 1012.0
20260505193054 40 296 0.0 0.9 0.00 0.00 0.00 66 1011.9
20260505191552 41 296 0.0 0.9 0.00 0.00 0.00 64 1011.9
20260505190049 43 306 0.0 0.9 0.00 0.00 0.00 60 1011.8
20260505184546 44 254 0.0 1.7 0.00 0.00 0.00 60 1011.7
20260505183056 44 268 0.0 1.7 0.00 0.00 0.00 58 1011.6
20260505181544 46 257 0.0 2.6 0.00 0.00 0.00 55 1011.5
20260505180045 46 247 0.0 1.7 0.00 0.00 0.00 53 1011.5
20260505174548 47 255 0.0 5.2 0.00 0.00 0.00 51 1011.5